This demonstration page uses our WeatherBlox Daily Observations layout. Learn more.

Left ArrowRight Arrow

Hourly Observations for March 24, 2018

Temp ( °F °C ) Dew Point ( °F °C ) Humidity (%) Winds ( mph kmh ) Pressure ( in mb ) Visibility ( mi km ) Precip ( " mm )
12:59 am 00:59 Clear 43 6.1 22 -5.6 43 43 N 10 17 30.19 1023 10 16 0.00 0.00
1:59 am 01:59 Clear 42 5.6 22 -5.6 45 45 N 12 19 30.21 1023 10 16 0.00 0.00
2:59 am 02:59 Clear 40 4.4 21 -6.1 47 47 NNW 17 28 30.21 1023 10 16 0.00 0.00
3:59 am 03:59 Clear 39 3.9 22 -5.6 50 50 NNW 15 24 30.20 1023 10 16 0.00 0.00
4:59 am 04:59 Clear 38 3.3 22 -5.6 52 52 NW 13 20 30.20 1023 10 16 0.00 0.00
5:59 am 05:59 Clear 38 3.3 23 -5 55 55 NNW 12 19 30.22 1023 10 16 0.00 0.00
6:59 am 06:59 Clear 37 2.8 22 -5.6 54 54 NNW 13 20 30.22 1023 10 16 0.00 0.00
7:59 am 07:59 Mostly Sunny 38 3.3 23 -5 55 55 NNW 13 20 30.24 1024 10 16 0.00 0.00
8:59 am 08:59 Mostly Cloudy 41 5 23 -5 49 49 NNW 12 19 30.24 1024 10 16 0.00 0.00
9:59 am 09:59 Sunny 43 6.1 21 -6.1 42 42 NNW 13 20 30.25 1025 10 16 0.00 0.00
10:59 am 10:59 Mostly Cloudy 45 7.2 21 -6.1 39 39 N 9 15 30.24 1024 10 16 0.00 0.00
11:59 am 11:59 Mostly Cloudy 45 7.2 23 -5 42 42 NNE 9 15 30.22 1024 10 16 0.00 0.00
12:59 pm 12:59 Mostly Cloudy 45 7.2 23 -5 42 42 N 9 15 30.21 1023 10 16 0.00 0.00
1:59 pm 13:59 Cloudy 45 7.2 24 -4.4 44 44 VRB 3 6 30.19 1022 10 16 0.00 0.00
2:59 pm 14:59 Cloudy 48 8.9 25 -3.9 41 41 ENE 9 15 30.16 1021 10 16 0.00 0.00
3:59 pm 15:59 Cloudy 45 7.2 25 -3.9 46 46 E 8 13 30.15 1021 10 16 0.00 0.00
4:59 pm 16:59 Cloudy 47 8.3 25 -3.9 42 42 ENE 5 7 30.14 1021 10 16 0.00 0.00
5:59 pm 17:59 Cloudy 45 7.2 26 -3.3 48 48 ENE 7 11 30.13 1020 10 16 0.00 0.00
6:59 pm 18:59 Mostly Cloudy 44 6.7 24 -4.4 45 45 E 5 7 30.12 1020 10 16 0.00 0.00
7:59 pm 19:59 Mostly Cloudy 43 6.1 24 -4.4 47 47 ESE 7 11 30.12 1020 10 16 0.00 0.00
8:59 pm 20:59 Mostly Cloudy 43 6.1 25 -3.9 49 49 ESE 5 7 30.14 1021 10 16 0.00 0.00
9:59 pm 21:59 Cloudy 43 6.1 26 -3.3 51 51 SSE 6 9 30.16 1021 10 16 0.00 0.00
10:59 pm 22:59 Cloudy 43 6.1 28 -2.2 56 56 S 5 7 30.17 1022 10 16 0.00 0.00
11:59 pm 23:59 Cloudy 42 5.6 30 -1.1 62 62 S 5 7 30.16 1021 10 16 0.00 0.00

Powered by AerisWeather